Starlink 33782

operational
NORAD ID: 64332 Int'l Des: 2025-124 Owner: SPXS Country: US Constellation: starlink
LEOCIRCULAR

Starlink 33782について

説明を読み込み中...

リアルタイム位置

3D地球を読み込み中...

次回通過

高度履歴

Altitude vs Time

uPlot chart will show altitude changes over time

軌道要素

1 64332U 25124R 25308.16014924 .00027175 00000-0 99285-3 0 9995
2 64332 43.0024 110.5151 0002015 266.7043 93.3578 15.27597498 22582
Epoch: Nov 4, 2025 • Age: 11 hours

現在のステータス

高度 482.5 km
速度 7.63 km/s
衛星直下点 15.05°N, 143.41°W
打ち上げ日 Jun 10, 2025
運用期間 0.4 years
タイプ internet

技術仕様

分類 Payload
質量 575.00 kg
乾燥質量 530.00 kg
総質量 575.00 kg
長さ 0.30 m
直径 4.10 m
スパン 29.00 m
形状 Box + pan
製造者 SPXS
バスタイプ Starlink V2MO
フェーズステータス In Orbit
所有者/国 SPXS/US

大規模コンステレーション

Loading constellations...